Weather History for Big Piney, WY

Change the Weather History Date:

Monday, January 20, 2014

  Actual Average Record
Temperature  
Mean Temperature 15 °F 11 °F  
Max Temperature 32 °F 26 °F 46 °F (1994)
Min Temperature -3 °F -4 °F -37 °F (1984)
Degree Days  
Heating Degree Days 50 54  
Month to date heating degree days 943 1080  
Since 1 July heating degree days 5062 5519  
Cooling Degree Days 0 0  
Month to date cooling degree days 0 0  
Year to date cooling degree days 0 0  
Moisture  
Dew Point 3 °F    
Average Humidity 65    
Maximum Humidity 87    
Minimum Humidity 43    
Precipitation  
Precipitation 0.00 in 0.01 in 0.02 in (2008)
Month to date precipitation T 0.21  
Year to date precipitation T 0.21  
Sea Level Pressure  
Sea Level Pressure 30.56 in    
Wind  
Wind Speed 5 mph (East)    
Max Wind Speed 13 mph    
Max Gust Speed 14 mph    
Visibility 10 miles    
Events      
T = Trace of Precipitation, MM = Missing Value Source: NWS Daily Summary

Daily Weather History Graph

Daily Weather History Graph

Search for Another Location

Airport:

Trip Planner

Search our weather history database for the weather conditions in past years. The results will help you decide how hot, cold, wet, or windy it might be!

Date:

Astronomy

Jan. 20, 2014 Rise Set
Actual Time 7:44 AM MST 5:18 PM MST
Civil Twilight 7:13 AM MST 5:49 PM MST
Nautical Twilight 6:39 AM MST 6:24 PM MST
Astronomical Twilight 6:05 AM MST 6:57 PM MST
Moon 10:03 PM MST (1/20) 9:39 AM MST (1/20)
Length of Visible Light 10h 35m
Length of Day
9h 33m
Waning Gibbous, 82% of the Moon is Illuminated
Jan 20
Waning Gibbous
Jan 23
Last Quarter
Jan 30
New
Feb 6
First Quarter
Feb 14
Full

Hourly Weather History & Observations

Time (MST) Temp. Windchill Dew Point Humidity Pressure Visibility Wind Dir Wind Speed Gust Speed Precip Events Conditions
12:53 AM 5.0 °F -2.1 °F -2.0 °F 73% 30.33 in 10.0 mi South 3.5 mph - N/A   Clear
1:53 AM 1.9 °F -7.6 °F -2.9 °F 80% 30.34 in 10.0 mi NE 4.6 mph - N/A   Partly Cloudy
2:53 AM 3.0 °F -9.3 °F -2.0 °F 80% 30.35 in 10.0 mi West 6.9 mph - N/A   Clear
3:53 AM 7.0 °F -7.5 °F 1.0 °F 77% 30.34 in 10.0 mi NW 10.4 mph - N/A   Clear
4:53 AM 3.9 °F -10.4 °F -2.0 °F 76% 30.39 in 10.0 mi ENE 9.2 mph - N/A   Clear
5:53 AM 8.1 °F -7.7 °F -0.0 °F 70% 30.44 in 10.0 mi ENE 12.7 mph - N/A   Clear
6:53 AM 3.9 °F -5.3 °F -2.9 °F 73% 30.52 in 10.0 mi Variable 4.6 mph - N/A   Clear
7:53 AM 1.9 °F -7.6 °F -2.9 °F 80% 30.56 in 10.0 mi South 4.6 mph - N/A   Clear
8:53 AM 10.0 °F - 1.9 °F 70% 30.54 in 10.0 mi Calm Calm - N/A   Clear
9:53 AM 14.0 °F 5.1 °F 3.9 °F 64% 30.59 in 10.0 mi SSW 5.8 mph - N/A   Clear
10:53 AM 17.1 °F 10.0 °F 6.1 °F 62% 30.62 in 10.0 mi SE 4.6 mph - N/A   Clear
11:53 AM 21.9 °F 17.2 °F 9.0 °F 58% 30.61 in 10.0 mi South 3.5 mph - N/A   Clear
12:53 PM 27.0 °F - 10.9 °F 51% 30.58 in 10.0 mi Calm Calm - N/A   Clear
1:53 PM 27.0 °F 21.6 °F 12.9 °F 56% 30.60 in 10.0 mi East 4.6 mph - N/A   Clear
2:53 PM 30.9 °F - 12.9 °F 47% 30.58 in 10.0 mi Calm Calm - N/A   Clear
3:53 PM 32.0 °F - 12.9 °F 45% 30.56 in 10.0 mi Calm Calm - N/A   Clear
4:53 PM 27.0 °F 21.6 °F 14.0 °F 58% 30.60 in 10.0 mi East 4.6 mph - N/A   Clear
5:53 PM 16.0 °F 6.3 °F 8.1 °F 71% 30.64 in 10.0 mi ENE 6.9 mph - N/A   Clear
6:53 PM 10.9 °F -0.8 °F 5.0 °F 77% 30.69 in 10.0 mi NE 8.1 mph - N/A   Clear
7:53 PM 12.9 °F 6.9 °F 7.0 °F 77% 30.71 in 10.0 mi North 3.5 mph - N/A   Clear
8:53 PM 3.0 °F -4.4 °F -0.0 °F 87% 30.72 in 10.0 mi NNE 3.5 mph - N/A   Clear
9:53 PM 1.0 °F -10.3 °F -2.0 °F 87% 30.71 in 10.0 mi East 5.8 mph - N/A   Clear
10:53 PM 1.9 °F -5.6 °F -2.9 °F 80% 30.71 in 10.0 mi ENE 3.5 mph - N/A   Clear
11:53 PM -2.9 °F - -6.0 °F 87% 30.71 in 10.0 mi Calm Calm - N/A   Clear